SCP
0 0 0 0 0 0 0 0 0 0 0 0 0 0 0 0 0 0 0 0 0 0 0 0 0 0 0 0 0 0 0 0 0 0 0 0 0 0 0 0 0 0 0
0 0 0 0 0 0 0 0 0 0 0 0 0 0 0 0 0 0 0 0 0 0 0 0 0 0 0 0 0 0 0 0 0 0 0 0 0 0 0 0 0 0 0
0 0 0 0 0 0 0 0 0 0 0 0 0 0 0 0 0 0 0 0 0 0 0 0 0 0 0 0 0 0 0 0 0 0 0 0 0 0 0 0 0 0 0
0 0 0 0 0 0 0 0 0 0 0 0 0 0 0 0 0 0 0 0 0 0 0 0 0 0 0 0 0 0 0 0 0 0 0 0 0 0 0 0 0 0 0
0 0 0 0 0 0 0 0 0 0 0 0 0 0 0 0 0 0 0 0 0 0 0 0 0 0 0 0 0 0 0 0 0 0 0 0 0 0 0 0 0 0 0
0 0 0 0 0 0 0 0 0 0 0 0 0 0 0 0 0 0 0 0 0 0 0 0 0 0 0 0 0 0 0 0 0 0 0 0 0 0 0 0 0 0 0
0 0 0 0 0 0 0 0 0 0 0 0 0 0 0 0 0 0 0 0 0 0 0 0 0 0 0 0 0 0 0 0 0 0 0 0 0 0 0 0 0 0 0
0 0 0 0 0 0 0 0 0 0 0 0 0 0 0 0 0 0 0 0 0 0 0 0 0 0 0 0 0 0 0 0 0 0 0 0 0 0 0 0 0 0 0
0 0 0 0 0 0 0 0 0 0 0 0 0 0 0 0 0 0 0 0 0 0 0 0 0 0 0 0 0 0 0 0 0 0 0 0 0 0 0 0 0 0 0
0 0 0 0 0 0 0 0 0 0 0 0 0 0 0 0 0 0 0 0 0 0 0 0 0 0 0 0 0 0 0 0 0 0 0 0 0 0 0 0 0 0 0
0 0 0 0 0 0 0 0 0 0 0 0 0 0 0 0 0 0 0 0 0 0 0 0 0 0 0 0 0 0 0 0 0 0 0 0 0 0 0 0 0 0 0
0 0 0 0 0 0 0 0 0 0 0 0 0 0 0 0 0 0 0 0 0 0 0 0 0 0 0 0 0 0 0 0 0 0 0 0 0 0 0 0 0 0 0
0 0 0 0 0 0 0 0 0 0 0 0 0 0 0 0 0 0 0 0 0 0 0 0 0 0 0 0 0 0 0 0 0 0 0 0 0 0 0 0 0 0 0
0 0 0 0 0 0 0 0 0 0 0 0 0 0 0 0 0 0 0 0 0 0 0 0 0 0 0 0 0 0 0 0 0 0 0 0 0 0 0 0 0 0 0
0 0 0 0 0 0 0 0 0 0 0 0 0 0 0 0 0 0 0 0 0 0 0 0 0 0 0 0 0 0 0 0 0 0 0 0 0 0 0 0 0 0 0
0 0 0 0 0 0 0 0 0 0 0 0 0 0 0 0 0 0 0 0 0 0 0 0 0 0 0 0 0 0 0 0 0 0 0 0 0 0 0 0 0 0 0
0 0 0 0 0 0 0 0 0 0 0 0 0 0 0 0 0 0 0 0 0 0 0 0 0 0 0 0 0 0 0 0 0 0 0 0 0 0 0 0 0 0 0
0 0 0 0 0 0 0 0 0 0 0 0 0 0 0 0 0 0 0 0 0 0 0 0 0 0 0 0 0 0 0 0 0 0 0 0 0 0 0 0 0 0 0
0 0 0 0 0 0 0 0 0 0 0 0 0 0 0 0 0 0 0 0 0 0 0 0 0 0 0 0 0 0 0 0 0 0 0 0 0 0 0 0 0 0 0
0 0 0 0 0 0 0 0 0 0 0 0 0 0 0 0 0 0 0 0 0 0 0 0 0 0 0 0 0 0 0 0 0 0 0 0 0 0 0 0 0 0 0
0 0 0 0 0 0 0 0 0 0 0 0 0 0 0 0 0 0 0 0 0 0 0 0 0 0 0 0 0 0 0 0 0 0 0 0 0 0 0 0 0 0 0
0 0 0 0 0 0 0 0 0 0 0 0 0 0 0 0 0 0 0 0 0 0 0 0 0 0 0 0 0 0 0 0 0 0 0 0 0 0 0 0 0 0 0
0 0 0 0 0 0 0 0 0 0 0 0 0 0 0 0 0 0 0 0 0 0 0 0 0 0 0 0 0 0 0 0 0 0 0 0 0 0 0 0 0 0 0
0 0 0 0 0 0 0 0 0 0 0 0 0 0 0 0 0 0 0 0 0 0 0 0 0 0 0 0 0 0 0 0 0 0 0 0 0 0 0 0 0 0 0
0 0 0 0 0 0 0 0 0 0 0 0 0 0 0 0 0 0 0 0 0 0 0 0 0 0 0 0 0 0 0 0 0 0 0 0 0 0 0 0 0 0 0
0 0 0 0 0 0 0 0 0 0 0 0 0 0 0 0 0 0 0 0 0 0 -0 0 0 0 0 0 0 0 0 0 0 0 0 0 0 0 0 0 0 0 0
Wind_Speed
1 2 2 2 2 4 3 2 3 4 5 5 5 5 5 4 5 4 5 5 5 6 6 5 5 4 3 3 3 3 4 4 5 4 3 3 5 5 5 6 6 7 9
1 2 3 2 2 3 3 3 4 5 5 5 5 5 5 5 5 5 6 6 6 6 6 5 5 4 4 3 3 4 4 4 5 5 3 3 5 5 5 6 5 6 6
2 1 4 3 2 3 4 4 4 5 5 5 5 5 5 5 5 5 6 7 7 7 6 5 5 5 4 3 3 3 3 4 3 4 4 3 3 3 4 4 4 4 5
1 2 2 3 3 2 3 3 4 5 5 5 5 5 5 5 4 5 6 7 7 7 7 6 5 3 3 3 3 3 3 3 3 3 4 3 3 3 4 3 3 4 4
2 2 2 2 2 1 2 3 3 4 6 5 5 5 5 4 4 5 6 8 8 8 7 6 5 4 4 3 3 3 3 3 3 3 3 3 3 3 4 4 4 3 4
3 3 2 1 2 2 3 3 3 4 5 4 4 4 5 4 3 4 5 6 7 8 7 6 6 5 4 5 7 7 6 4 4 3 3 4 5 5 4 4 4 4 4
3 3 2 2 0 2 3 3 4 4 4 3 4 4 4 4 4 5 8 6 7 7 6 5 6 6 5 4 5 6 7 9 9 5 5 5 5 4 5 5 5 5 4
4 3 3 3 3 3 3 4 4 3 3 3 4 4 4 4 4 4 8 6 6 6 6 4 4 4 4 4 5 6 5 5 5 5 6 6 4 4 4 5 5 4 2
3 3 2 3 3 3 4 4 4 3 3 4 4 4 4 4 3 2 5 5 5 6 5 4 4 3 4 6 5 6 5 5 5 6 7 7 7 7 4 3 4 4 3
1 2 2 2 3 4 4 5 4 3 4 4 5 5 5 4 5 4 3 3 5 5 5 4 3 3 5 6 4 5 5 5 5 5 5 6 6 6 8 7 6 5 3
1 1 1 3 4 5 5 4 4 4 4 5 5 5 6 5 6 7 5 2 3 4 4 4 2 4 5 7 6 4 6 6 5 5 4 3 3 3 3 4 4 5 5
1 1 3 4 5 5 5 5 5 5 5 6 6 6 5 4 5 7 8 7 5 4 4 4 3 6 8 9 6 7 9 7 4 3 3 2 2 2 2 2 3 3 3
4 4 5 6 6 6 6 6 5 5 5 5 5 4 4 3 4 9 10 9 9 5 5 8 10 12 11 8 7 8 6 3 2 2 2 2 1 0 1 2 2 3 4
6 6 5 5 5 5 5 5 5 5 5 4 4 4 4 3 3 3 4 4 6 6 5 6 9 11 8 8 8 5 3 2 2 2 2 1 1 1 1 1 2 2 3
6 6 6 5 5 5 5 4 5 6 6 6 5 4 3 4 3 3 2 2 1 1 3 4 4 4 3 3 3 3 2 1 1 1 1 1 0 1 1 1 1 2 3
7 7 5 5 5 5 5 5 8 8 10 12 11 8 6 6 6 8 7 6 4 3 2 4 5 5 4 4 3 3 2 2 2 1 1 1 1 1 1 1 2 2 3
7 6 5 6 6 6 6 6 6 7 9 11 11 12 12 11 9 9 8 6 6 4 3 5 5 5 5 4 3 3 3 3 3 2 2 2 1 2 2 2 2 3 3
6 6 7 6 6 6 6 6 6 6 5 5 8 13 14 14 12 10 7 3 4 5 5 6 6 6 5 4 4 3 3 3 3 3 3 2 2 2 2 3 3 4 4
6 4 5 6 6 6 6 6 6 7 6 5 5 4 8 9 8 7 6 5 6 6 6 6 6 6 5 4 4 4 4 4 4 4 3 4 3 3 3 3 3 5 4
5 8 8 6 5 6 7 7 7 7 7 7 7 6 5 1 2 3 5 6 7 7 6 6 6 5 5 4 4 4 4 4 4 4 4 4 4 4 4 4 4 5 4
5 6 10 6 6 6 7 7 7 7 8 8 8 10 11 5 4 4 3 4 6 7 7 6 6 5 5 4 4 5 5 5 5 5 5 5 5 4 4 4 5 5 4
5 5 5 5 5 5 6 6 6 7 8 9 8 10 14 8 7 7 7 7 6 5 5 5 5 4 5 5 5 5 5 6 6 6 6 6 6 5 5 5 5 5 5
5 5 5 4 4 6 6 5 6 6 6 7 7 8 8 8 9 9 9 9 9 9 9 8 6 4 4 4 5 5 6 6 6 6 7 7 7 7 6 6 8 7 7
5 5 5 4 4 4 5 5 5 5 6 6 6 6 7 7 8 9 9 9 10 10 9 9 10 12 13 7 4 4 5 7 6 6 8 8 8 7 7 7 8 9 8
5 5 4 4 4 4 5 5 5 5 5 5 5 5 6 6 7 7 7 7 9 10 12 12 9 11 16 17 12 9 9 10 11 7 6 6 8 9 9 9 8 7 7
6 5 4 4 4 4 4 5 5 5 5 5 4 5 5 5 6 6 6 6 8 8 9 9 13 16 17 13 16 17 16 14 13 13 8 6 7 8 8 8 10 9 9
Wind_Direction
341 327 306 288 288 292 292 320 311 313 333 339 335 326 330 347 359 356 338 331 326 318 315 311 306 292 273 259 250 243 235 217 231 248 233 222 206 209 193 197 198 186 195
131 319 299 297 293 313 336 350 338 335 335 327 327 330 341 357 1 348 337 335 326 321 314 315 311 305 291 276 264 253 245 231 221 237 237 220 216 207 198 200 200 196 191
153 271 294 310 327 341 336 1 340 333 332 326 331 342 347 352 356 350 349 341 331 319 314 314 311 313 308 301 291 273 260 254 237 233 237 222 215 202 199 206 205 199 201
165 250 291 326 337 349 349 338 328 326 321 322 338 340 342 345 355 3 353 333 322 318 316 310 308 314 315 319 308 302 292 274 259 245 238 227 214 200 188 196 206 203 204
211 242 251 287 305 321 314 312 321 326 326 335 341 335 340 335 13 13 343 326 321 316 313 312 316 309 297 289 294 305 310 287 267 252 244 234 216 196 201 194 200 198 208
202 221 206 214 318 341 314 319 321 312 302 312 323 324 325 333 2 346 333 318 310 308 310 315 313 293 295 287 274 268 261 262 263 256 254 242 231 216 200 194 193 190 209
220 212 175 166 235 294 301 304 291 283 287 300 297 303 308 308 283 308 325 314 295 295 300 305 313 321 342 335 318 294 271 255 244 245 255 252 246 228 204 200 202 200 206
209 185 171 177 203 234 256 268 272 273 291 295 289 286 289 292 268 293 322 306 294 294 294 299 307 324 3 357 328 310 292 278 256 241 244 254 254 244 215 204 201 206 202
178 162 193 205 209 221 246 263 269 270 275 280 284 279 277 276 221 256 319 305 301 305 312 330 333 333 357 351 321 305 305 300 285 267 259 260 258 246 216 183 184 184 197
186 172 190 208 230 236 241 250 260 266 264 269 273 266 262 265 202 210 284 297 307 314 317 319 336 343 340 338 316 307 308 309 316 300 276 262 251 232 216 205 194 187 177
98 127 226 240 244 242 239 241 252 260 263 265 273 269 258 247 206 201 214 257 296 309 311 314 321 340 328 319 311 291 288 298 299 294 280 265 243 220 205 200 197 185 174
347 244 246 249 253 258 237 232 236 249 261 263 263 265 257 236 200 202 211 230 254 276 288 295 304 317 312 306 299 289 296 301 285 286 287 274 250 223 190 177 171 165 163
305 270 252 247 243 240 237 234 232 233 240 250 253 257 258 244 197 200 212 231 244 250 269 285 294 294 297 294 283 288 296 286 284 287 291 288 289 201 132 124 116 117 111
311 298 285 276 268 254 238 228 228 231 237 245 251 255 256 248 225 189 202 228 245 255 271 290 293 279 269 269 280 279 265 260 270 272 275 289 317 93 115 124 134 135 127
322 315 312 303 296 289 275 248 237 231 226 229 236 240 252 259 224 184 180 217 264 339 327 299 287 284 270 254 254 251 251 277 277 279 270 278 233 129 120 124 142 146 148
338 334 330 325 319 312 302 295 266 256 256 245 238 238 246 245 209 204 214 226 241 270 295 278 280 278 273 266 254 248 232 233 232 229 226 229 209 175 160 155 154 153 149
336 341 340 332 326 320 315 309 305 292 271 263 255 249 244 249 239 227 227 234 248 244 245 259 264 266 264 261 250 239 228 218 207 197 203 213 200 188 180 170 161 154 150
342 354 351 331 323 318 316 313 309 306 304 293 263 249 247 246 244 236 225 220 254 228 231 245 253 254 255 253 247 240 229 212 198 196 197 200 197 194 184 177 168 161 155
343 350 340 323 318 323 326 323 320 318 316 313 314 297 260 255 253 241 198 212 241 248 244 242 243 241 243 244 241 234 226 212 203 197 194 194 196 189 186 177 164 161 154
333 348 348 333 339 349 347 341 341 342 342 341 340 345 357 346 268 234 212 224 236 245 249 253 252 245 239 239 236 231 230 220 210 205 200 196 194 188 183 174 167 169 171
337 347 352 351 354 357 349 345 349 351 352 351 348 348 356 347 323 302 268 241 240 245 248 248 245 242 235 234 234 231 230 229 217 207 202 197 192 189 185 179 174 175 173
338 347 347 350 350 353 346 347 354 355 354 355 350 353 358 359 353 350 346 339 324 299 276 261 251 239 227 223 223 229 235 234 225 212 205 197 191 190 184 182 181 179 177
335 341 342 344 345 346 347 347 348 350 350 351 352 355 358 358 356 354 350 346 345 344 344 335 313 287 262 238 226 224 232 237 233 220 207 201 195 192 188 188 187 183 182
326 330 333 334 336 337 336 338 340 343 345 345 348 350 351 349 347 347 348 351 350 347 346 344 343 339 330 314 279 250 239 242 242 236 222 210 202 197 192 191 190 188 185
315 317 319 321 324 324 324 325 326 331 334 335 338 340 339 338 338 338 339 342 344 342 342 341 339 339 338 335 335 330 307 276 261 254 242 223 212 204 197 194 190 187 184
303 305 309 312 313 314 314 314 314 317 317 319 322 322 321 322 323 324 327 332 335 332 332 332 332 333 332 336 341 338 335 323 297 270 254 240 225 216 204 198 194 191 188